Location: Gu�tanj
(46.5431°N, 14.9692°E)
Time: 18:40:32
(UTC+00:00)

Meteor 1-14 Rocket - Pass Details

Date: 03 March 2021
Orbit: 834 x 918 km, 81.3° (Epoch: 14 April)

Event Time Altitude Azimuth Distance (km) Brightness Sun altitude
Rises 17:38:15 0° 173° (S) 3,398 7.3 -9.3°
Reaches altitude 10° 17:40:43 10° 168° (SSE) 2,458 6.5 -9.7°
Maximum altitude 17:46:04 51° 94° (E) 1,050 4.3 -10.6°
Drops below altitude 10° 17:51:25 10° 20° (NNE) 2,456 6.4 -11.5°
Sets 17:53:52 0° 16° (NNE) 3,396 7.2 -11.9°
